TimeEDT,TemperatureF,Dew PointF,Humidity,Sea Level PressureIn,VisibilityMPH,Wind Direction,Wind SpeedMPH,Gust SpeedMPH,PrecipitationIn,Events,Conditions,WindDirDegrees,DateUTC
12:54 AM,64.0,62.1,93,30.09,8.0,Calm,Calm,-,N/A,,Clear,0,2012-10-05 04:54:00
1:54 AM,62.1,60.1,93,30.09,8.0,WNW,4.6,-,N/A,,Clear,290,2012-10-05 05:54:00
2:54 AM,61.0,57.9,90,30.09,10.0,West,3.5,-,N/A,,Clear,280,2012-10-05 06:54:00
3:54 AM,60.1,57.0,90,30.08,10.0,NW,5.8,-,N/A,,Clear,310,2012-10-05 07:54:00
4:54 AM,60.1,57.0,90,30.09,10.0,WNW,4.6,-,N/A,,Clear,300,2012-10-05 08:54:00
5:54 AM,60.1,55.9,86,30.10,10.0,Calm,Calm,-,N/A,,Clear,0,2012-10-05 09:54:00
6:54 AM,57.9,55.0,90,30.11,9.0,Calm,Calm,-,N/A,,Clear,0,2012-10-05 10:54:00
7:54 AM,60.1,55.9,86,30.11,6.0,Calm,Calm,-,N/A,,Clear,0,2012-10-05 11:54:00
8:54 AM,64.9,57.9,78,30.10,10.0,WNW,5.8,-,N/A,,Clear,300,2012-10-05 12:54:00
9:54 AM,69.1,57.9,68,30.11,10.0,WNW,8.1,-,N/A,,Clear,300,2012-10-05 13:54:00
10:54 AM,73.9,57.0,55,30.11,10.0,NNW,8.1,-,N/A,,Clear,330,2012-10-05 14:54:00
11:54 AM,77.0,55.9,48,30.09,10.0,NW,5.8,-,N/A,,Clear,320,2012-10-05 15:54:00
12:54 PM,78.1,54.0,43,30.07,10.0,WNW,6.9,-,N/A,,Clear,300,2012-10-05 16:54:00
1:54 PM,79.0,54.0,42,30.03,10.0,West,4.6,-,N/A,,Partly Cloudy,280,2012-10-05 17:54:00
2:54 PM,80.1,55.0,42,30.01,10.0,NNW,6.9,-,N/A,,Partly Cloudy,340,2012-10-05 18:54:00
3:54 PM,80.1,53.1,39,30.00,10.0,West,9.2,-,N/A,,Clear,280,2012-10-05 19:54:00
4:54 PM,79.0,55.0,44,30.00,10.0,WNW,6.9,-,N/A,,Clear,290,2012-10-05 20:54:00
5:54 PM,75.9,55.9,50,30.00,10.0,West,3.5,-,N/A,,Clear,280,2012-10-05 21:54:00
6:54 PM,70.0,59.0,68,30.01,10.0,Calm,Calm,-,N/A,,Clear,0,2012-10-05 22:54:00
7:54 PM,69.1,60.1,73,30.01,10.0,SSW,3.5,-,N/A,,Clear,210,2012-10-05 23:54:00
8:54 PM,66.0,59.0,78,30.01,10.0,SSW,4.6,-,N/A,,Clear,210,2012-10-06 00:54:00
9:54 PM,66.0,57.9,75,30.00,10.0,SW,8.1,-,N/A,,Clear,220,2012-10-06 01:54:00
10:54 PM,64.9,57.0,75,29.99,10.0,SSW,6.9,-,N/A,,Clear,210,2012-10-06 02:54:00
11:54 PM,64.0,57.0,78,29.98,9.0,SSW,4.6,-,N/A,,Clear,210,2012-10-06 03:54:00